NQ9B Weather Reports


time (UTC)temp
C
wind
direction
speed
KPH
gust
KPH
rain 1hr
cm
rain 24hr
cm
rain mn
cm
humidity
%
barometer
mb
20260506232034 25 0 0.0 9.7 0.00 0.05 0.05 63 1010.8
20260506231551 26 310 0.0 9.7 0.00 0.05 0.05 63 1010.6
20260506231033 26 155 1.6 11.3 0.00 0.05 0.05 63 1010.6
20260506230532 26 73 0.0 11.3 0.00 0.05 0.05 64 1010.6
20260506230053 27 0 1.6 11.3 0.00 0.05 0.05 64 1010.4
20260506225535 27 329 0.0 12.9 0.00 0.05 0.05 64 1010.3
20260506225033 27 286 1.6 12.9 0.00 0.05 0.05 64 1010.3
20260506224542 27 88 0.0 6.4 0.00 0.05 0.05 64 1010.3
20260506224034 27 153 0.0 12.9 0.00 0.05 0.05 65 1010.4
20260506223534 27 171 1.6 12.9 0.00 0.05 0.05 65 1010.3
20260506223052 27 105 1.6 9.7 0.00 0.05 0.05 65 1010.2
20260506222532 27 74 0.0 6.4 0.00 0.05 0.05 65 1010.2
20260506222032 27 0 1.6 6.4 0.00 0.05 0.05 64 1010.1
20260506221546 27 0 0.0 8.0 0.00 0.05 0.05 64 1010.0
20260506221036 27 0 0.0 8.0 0.00 0.05 0.05 64 1010.0
20260506220537 27 157 0.0 8.0 0.00 0.05 0.05 64 1010.1
20260506220045 27 80 0.0 6.4 0.00 0.05 0.05 64 1010.1
20260506215539 27 301 1.6 8.0 0.00 0.05 0.05 63 1009.9
20260506215033 28 131 1.6 8.0 0.00 0.05 0.05 63 1009.8
20260506214544 29 0 1.6 8.0 0.00 0.05 0.05 60 1010.0
20260506214033 30 0 0.0 1.6 0.00 0.05 0.05 59 1009.7
20260506213534 30 0 0.0 0.0 0.00 0.05 0.05 61 1009.6
20260506213104 30 0 0.0 0.0 0.00 0.05 0.05 60 1009.7
20260506212533 30 0 0.0 0.0 0.00 0.05 0.05 58 1009.8
20260506212038 30 0 0.0 0.0 0.00 0.05 0.05 58 1009.9
20260506211554 30 0 0.0 0.0 0.00 0.05 0.05 60 1009.8
20260506211032 30 0 0.0 0.0 0.00 0.05 0.05 59 1009.8
20260506210533 30 0 0.0 0.0 0.00 0.05 0.05 59 1009.9
20260506210047 30 0 0.0 0.0 0.00 0.05 0.05 58 1010.0
20260506205533 29 0 0.0 0.0 0.00 0.05 0.05 65 1010.0
20260506205033 29 0 0.0 0.0 0.00 0.05 0.05 64 1010.1
20260506204550 29 0 0.0 1.6 0.00 0.05 0.05 61 1010.2
20260506204032 30 0 0.0 1.6 0.00 0.05 0.05 63 1010.2
20260506203532 29 0 0.0 0.0 0.00 0.05 0.05 61 1010.1
20260506203047 29 0 0.0 0.0 0.00 0.05 0.05 62 1010.3
20260506202536 30 0 0.0 0.0 0.00 0.05 0.05 61 1010.2
20260506202035 30 0 0.0 0.0 0.00 0.05 0.05 61 1010.3
20260506201600 30 0 0.0 4.8 0.00 0.05 0.05 63 1010.3
20260506201034 29 0 0.0 4.8 0.00 0.05 0.05 61 1010.4
20260506200532 29 0 0.0 0.0 0.00 0.05 0.05 64 1010.6
20260506200043 30 0 0.0 0.0 0.00 0.05 0.05 62 1010.7
20260506195533 29 0 0.0 0.0 0.00 0.05 0.05 66 1010.7
20260506195033 28 0 0.0 0.0 0.00 0.05 0.05 66 1010.7
20260506194558 28 0 0.0 0.0 0.00 0.05 0.05 66 1010.8
20260506194034 28 0 0.0 0.0 0.00 0.05 0.05 66 1010.8
20260506193533 28 0 0.0 0.0 0.00 0.05 0.05 66 1010.8
20260506193046 28 0 0.0 0.0 0.00 0.05 0.05 65 1010.8
20260506192533 28 0 0.0 0.0 0.00 0.05 0.05 67 1010.8
20260506192033 28 0 0.0 0.0 0.00 0.05 0.05 66 1011.0
20260506191550 29 0 0.0 0.0 0.00 0.05 0.05 65 1010.9
20260506191034 29 0 0.0 0.0 0.00 0.05 0.05 69 1010.9
20260506190533 28 0 0.0 0.0 0.00 0.05 0.05 68 1010.9
20260506190044 28 0 0.0 0.0 0.00 0.05 0.05 69 1010.9
20260506185532 28 0 0.0 0.0 0.00 0.05 0.05 69 1011.1
20260506185036 28 0 0.0 0.0 0.00 0.05 0.05 68 1011.2
20260506184546 27 0 0.0 0.0 0.00 0.05 0.05 70 1011.2
20260506184034 28 0 0.0 0.0 0.00 0.05 0.05 70 1011.3
20260506183534 27 0 0.0 0.0 0.00 0.05 0.05 71 1011.4
20260506183052 27 0 0.0 0.0 0.00 0.05 0.05 72 1011.5
20260506182532 27 0 0.0 0.0 0.00 0.05 0.05 73 1011.6
20260506182032 27 0 0.0 0.0 0.00 0.05 0.05 73 1011.7
20260506181545 27 0 0.0 0.0 0.00 0.05 0.05 73 1011.7
20260506181033 26 0 0.0 0.0 0.00 0.05 0.05 72 1011.7
20260506180535 26 0 0.0 1.6 0.00 0.05 0.05 74 1011.8
20260506180050 26 0 0.0 1.6 0.00 0.05 0.05 73 1011.9
20260506175533 26 0 0.0 0.0 0.00 0.05 0.05 74 1011.8
20260506175032 26 0 0.0 0.0 0.00 0.05 0.05 75 1011.9
20260506174546 26 0 0.0 0.0 0.00 0.05 0.05 74 1011.9
20260506174032 26 0 0.0 0.0 0.00 0.05 0.05 74 1011.9
20260506173532 26 0 0.0 0.0 0.00 0.05 0.05 74 1011.9
20260506173050 26 0 0.0 0.0 0.00 0.05 0.05 76 1011.9
20260506172532 26 0 0.0 3.2 0.00 0.05 0.05 76 1012.0
20260506172036 25 0 0.0 3.2 0.00 0.05 0.05 76 1012.0
20260506171543 25 145 0.0 3.2 0.00 0.05 0.05 77 1011.9
20260506171033 25 0 0.0 1.6 0.00 0.05 0.05 78 1012.0
20260506170531 25 0 0.0 3.2 0.00 0.05 0.05 78 1012.0
20260506165532 25 0 0.0 0.0 0.00 0.05 0.05 80 1012.0
20260506165032 25 0 0.0 0.0 0.03 0.05 0.05 80 1012.0
20260506164541 25 0 0.0 0.0 0.03 0.05 0.05 80 1012.0
20260506164035 25 0 0.0 0.0 0.03 0.05 0.05 79 1012.0
20260506163533 25 0 0.0 1.6 0.05 0.05 0.05 79 1012.0
20260506163058 25 0 0.0 1.6 0.05 0.05 0.05 79 1011.9
20260506162538 25 0 0.0 1.6 0.05 0.05 0.05 80 1011.8
20260506162036 25 0 0.0 0.0 0.05 0.05 0.05 81 1011.9
20260506161547 25 0 0.0 0.0 0.05 0.05 0.05 83 1011.9
20260506161033 24 0 0.0 0.0 0.05 0.05 0.05 84 1011.8
20260506160532 23 0 0.0 0.0 0.05 0.05 0.05 85 1011.8
20260506160046 23 0 0.0 0.0 0.05 0.05 0.05 85 1011.6
20260506155531 23 0 0.0 0.0 0.05 0.05 0.05 85 1011.7
20260506155032 23 0 0.0 0.0 0.03 0.03 0.03 85 1011.7
20260506154546 23 0 0.0 0.0 0.03 0.03 0.03 84 1011.7
20260506154033 23 0 0.0 0.0 0.03 0.03 0.03 83 1011.6
20260506153532 23 0 0.0 0.0 0.00 0.00 0.00 82 1011.6
20260506153041 23 0 0.0 0.0 0.00 0.00 0.00 82 1011.5
20260506152534 24 0 0.0 0.0 0.00 0.00 0.00 81 1011.5
20260506152033 24 0 0.0 0.0 0.00 0.00 0.00 81 1011.3
20260506151544 24 0 0.0 0.0 0.00 0.00 0.00 80 1011.2
20260506151032 24 0 0.0 0.0 0.00 0.00 0.00 81 1011.2
20260506150533 24 0 0.0 0.0 0.00 0.00 0.00 80 1011.1
20260506150049 24 0 0.0 0.0 0.00 0.00 0.00 81 1011.0
20260506145537 24 0 0.0 0.0 0.00 0.00 0.00 80 1011.0
20260506145033 24 0 0.0 0.0 0.00 0.00 0.00 81 1010.9
20260506144558 24 0 0.0 0.0 0.00 0.00 0.00 81 1011.0
20260506144032 24 0 0.0 0.0 0.00 0.00 0.00 81 1011.0
20260506143532 24 0 0.0 0.0 0.00 0.00 0.00 81 1010.8
20260506143045 24 0 0.0 1.6 0.00 0.00 0.00 80 1010.8
20260506142532 24 0 0.0 3.2 0.00 0.00 0.00 81 1010.7
20260506142034 24 0 0.0 3.2 0.00 0.00 0.00 81 1010.5
20260506141545 24 0 0.0 1.6 0.00 0.00 0.00 81 1010.6
20260506141034 23 0 0.0 1.6 0.00 0.00 0.00 81 1010.6
20260506140536 23 0 0.0 1.6 0.00 0.00 0.00 82 1010.4
20260506140045 23 0 0.0 3.2 0.00 0.00 0.00 82 1010.3
20260506135531 23 0 0.0 3.2 0.00 0.00 0.00 82 1010.0
20260506135032 23 0 0.0 0.0 0.00 0.00 0.00 83 1010.1
20260506134545 23 0 0.0 3.2 0.00 0.00 0.00 82 1009.8
20260506134035 23 0 0.0 3.2 0.00 0.00 0.00 82 1009.8
20260506133533 23 0 0.0 0.0 0.00 0.00 0.00 82 1009.7
20260506133044 23 0 0.0 0.0 0.00 0.00 0.00 82 1009.7
20260506132532 23 0 0.0 0.0 0.00 0.00 0.00 82 1009.7
20260506132035 23 0 0.0 0.0 0.00 0.00 0.00 82 1009.6
20260506131545 23 0 0.0 0.0 0.00 0.00 0.00 83 1009.6
20260506131031 23 0 0.0 1.6 0.00 0.00 0.00 83 1009.5
20260506130533 23 0 0.0 1.6 0.00 0.00 0.00 83 1009.4
20260506130047 23 0 0.0 0.0 0.00 0.00 0.00 83 1009.4
20260506125531 23 0 0.0 0.0 0.00 0.00 0.00 84 1009.3
20260506125033 23 0 0.0 0.0 0.00 0.00 0.00 84 1009.4
20260506124543 23 0 0.0 0.0 0.00 0.00 0.00 84 1009.4
20260506124032 23 0 0.0 0.0 0.00 0.00 0.00 84 1009.4
20260506123532 23 0 0.0 0.0 0.00 0.00 0.00 84 1009.3
20260506123043 23 0 0.0 0.0 0.00 0.00 0.00 84 1009.4
20260506122533 23 0 0.0 0.0 0.00 0.00 0.00 84 1009.4
20260506122032 23 0 0.0 0.0 0.00 0.00 0.00 84 1009.3
20260506121545 23 0 0.0 0.0 0.00 0.00 0.00 84 1009.4
20260506121032 23 0 0.0 0.0 0.00 0.00 0.00 84 1009.4
20260506120532 23 0 0.0 0.0 0.00 0.00 0.00 84 1009.4
20260506120046 23 0 0.0 0.0 0.00 0.00 0.00 84 1009.4
20260506115534 23 0 0.0 0.0 0.00 0.00 0.00 84 1009.3
20260506115031 23 0 0.0 0.0 0.00 0.00 0.00 84 1009.3
20260506114548 23 0 0.0 0.0 0.00 0.00 0.00 84 1009.3
20260506114032 23 0 0.0 0.0 0.00 0.00 0.00 84 1009.3
20260506113534 23 0 0.0 0.0 0.00 0.00 0.00 84 1009.4
20260506113045 23 0 0.0 0.0 0.00 0.00 0.00 84 1009.3
20260506112534 23 0 0.0 0.0 0.00 0.00 0.00 84 1009.3
20260506112031 23 0 0.0 0.0 0.00 0.00 0.00 83 1009.3
20260506111540 23 0 0.0 0.0 0.00 0.00 0.00 84 1009.4
20260506111031 23 0 0.0 0.0 0.00 0.00 0.00 83 1009.3
20260506110535 23 0 0.0 0.0 0.00 0.00 0.00 83 1009.4
20260506110044 23 0 0.0 0.0 0.00 0.00 0.00 83 1009.4
20260506105533 23 0 0.0 0.0 0.00 0.00 0.00 83 1009.3
20260506105033 23 0 0.0 0.0 0.00 0.00 0.00 83 1009.3
20260506104539 23 0 0.0 0.0 0.00 0.00 0.00 83 1009.3
20260506104031 23 0 0.0 0.0 0.00 0.00 0.00 83 1009.2
20260506103534 23 0 0.0 0.0 0.00 0.00 0.00 83 1009.1
20260506103049 23 0 0.0 0.0 0.00 0.00 0.00 83 1009.1
20260506102532 23 0 0.0 0.0 0.00 0.00 0.00 83 1009.2
20260506102032 23 0 0.0 0.0 0.00 0.00 0.00 83 1009.2
20260506101541 23 0 0.0 0.0 0.00 0.00 0.00 83 1009.1
20260506101032 23 0 0.0 0.0 0.00 0.00 0.00 83 1009.1
20260506100535 23 0 0.0 0.0 0.00 0.00 0.00 83 1009.1
20260506100038 23 0 0.0 0.0 0.00 0.00 0.00 83 1009.1
20260506095533 23 0 0.0 0.0 0.00 0.00 0.00 83 1009.1
20260506095033 23 0 0.0 0.0 0.00 0.00 0.00 83 1009.1
20260506094547 23 0 0.0 0.0 0.00 0.00 0.00 83 1009.1
20260506094032 23 0 0.0 0.0 0.00 0.00 0.00 84 1009.1
20260506093532 23 0 0.0 0.0 0.00 0.00 0.00 83 1009.1
20260506093047 23 0 0.0 0.0 0.00 0.00 0.00 83 1009.1
20260506092606 23 0 0.0 0.0 0.00 0.00 0.00 83 1009.1
20260506092034 23 0 0.0 0.0 0.00 0.00 0.00 83 1009.1
20260506091545 23 0 0.0 1.6 0.00 0.00 0.00 83 1008.9
20260506091032 23 0 0.0 1.6 0.00 0.00 0.00 83 1009.0
20260506090533 23 0 0.0 4.8 0.00 0.00 0.00 83 1009.1
20260506090050 23 0 0.0 4.8 0.00 0.00 0.00 83 1009.1
20260506085535 23 0 0.0 4.8 0.00 0.00 0.00 83 1009.1
20260506085035 23 0 0.0 4.8 0.00 0.00 0.00 83 1009.1
20260506084558 23 78 0.0 1.6 0.00 0.00 0.00 82 1009.2
20260506084035 23 0 0.0 3.2 0.00 0.00 0.00 82 1009.2
20260506083535 23 0 0.0 3.2 0.00 0.00 0.00 82 1009.2
20260506083044 23 0 0.0 3.2 0.00 0.00 0.00 82 1009.2
20260506082534 23 0 0.0 3.2 0.00 0.00 0.00 82 1009.2
20260506082032 23 0 0.0 3.2 0.00 0.00 0.00 82 1009.2
20260506081542 23 0 0.0 3.2 0.00 0.00 0.00 82 1009.3
20260506081033 23 0 0.0 3.2 0.00 0.00 0.00 82 1009.4
20260506080532 23 0 0.0 3.2 0.00 0.00 0.00 81 1009.3
20260506073054 23 0 0.0 3.2 0.00 0.00 0.00 81 1009.4
20260506072534 23 0 0.0 3.2 0.00 0.00 0.00 81 1009.4
20260506072032 23 0 0.0 1.6 0.00 0.00 0.00 81 1009.4
20260506071543 23 0 0.0 1.6 0.00 0.00 0.00 81 1009.3
20260506071039 23 321 0.0 1.6 0.00 0.00 0.00 81 1009.5
20260506070535 23 0 0.0 1.6 0.00 0.00 0.00 81 1009.7
20260506062034 24 0 0.0 0.0 0.00 0.00 0.00 81 1009.5
20260506061554 24 0 0.0 0.0 0.00 0.00 0.00 81 1009.6
20260506061035 24 0 0.0 3.2 0.00 0.00 0.00 81 1009.5
20260506060534 24 0 0.0 3.2 0.00 0.00 0.00 81 1009.5
20260506051032 24 0 0.0 0.0 0.00 0.00 0.00 81 1009.4
20260506050534 24 0 0.0 0.0 0.00 0.00 0.00 81 1009.5
20260506045033 24 0 0.0 3.2 0.00 0.00 0.00 80 1009.3
20260506044551 24 0 0.0 4.8 0.00 0.00 0.00 80 1009.4
20260506044033 24 0 0.0 4.8 0.00 0.00 0.00 80 1009.4
20260506043532 24 0 0.0 0.0 0.00 0.00 0.00 80 1009.3
20260506043043 24 0 0.0 0.0 0.00 0.00 0.00 80 1009.3
20260506042532 25 0 0.0 1.6 0.00 0.00 0.00 79 1009.3
20260506042032 25 0 0.0 4.8 0.00 0.00 0.00 79 1009.3
20260506041540 25 0 0.0 4.8 0.00 0.00 0.00 79 1009.1
20260506041031 25 0 0.0 3.2 0.00 0.00 0.00 79 1009.0
20260506040532 25 0 0.0 3.2 0.00 0.00 0.00 78 1009.0
20260506040045 25 0 0.0 3.2 0.00 0.00 0.00 78 1009.0
20260506035537 25 0 0.0 4.8 0.00 0.00 0.00 78 1008.8
20260506035033 25 0 0.0 4.8 0.00 0.00 0.00 77 1008.9
20260506034543 25 97 0.0 4.8 0.00 0.00 0.00 77 1008.9
20260506034033 25 247 0.0 6.4 0.00 0.00 0.00 77 1008.8
20260506033533 25 0 0.0 9.7 0.00 0.00 0.00 77 1008.7
20260506033049 25 63 0.0 9.7 0.00 0.00 0.00 76 1008.6
20260506032532 26 0 0.0 6.4 0.00 0.00 0.00 76 1008.6
20260506032032 26 0 0.0 6.4 0.00 0.00 0.00 76 1008.6
20260506031549 26 0 0.0 4.8 0.00 0.00 0.00 76 1008.6
20260506031035 26 0 0.0 4.8 0.00 0.00 0.00 76 1008.5
20260506030531 26 0 0.0 3.2 0.00 0.00 0.00 75 1008.5
20260506030047 26 0 0.0 8.0 0.00 0.00 0.00 75 1008.3
20260506025532 26 0 0.0 8.0 0.00 0.00 0.00 75 1008.3
20260506025036 26 0 0.0 8.0 0.00 0.00 0.00 75 1008.2
20260506024557 26 0 1.6 8.0 0.00 0.00 0.00 75 1008.0
20260506024032 26 136 0.0 4.8 0.00 0.00 0.00 74 1007.9
20260506023536 26 0 0.0 3.2 0.00 0.00 0.00 74 1007.9
20260506023042 27 303 0.0 3.2 0.00 0.00 0.00 73 1007.7
20260506022532 27 68 0.0 8.0 0.00 0.00 0.00 72 1007.8
20260506022034 27 0 0.0 11.3 0.00 0.00 0.00 71 1007.8
20260506021602 27 0 0.0 11.3 0.00 0.00 0.00 71 1007.7
20260506021033 27 84 0.0 3.2 0.00 0.00 0.00 70 1007.7
20260506020533 27 0 0.0 3.2 0.00 0.00 0.00 69 1007.6
20260506020044 27 0 0.0 3.2 0.00 0.00 0.00 69 1007.6
20260506015532 28 0 0.0 3.2 0.00 0.00 0.00 68 1007.5
20260506015034 28 0 0.0 3.2 0.00 0.00 0.00 68 1007.3
20260506014545 28 0 0.0 3.2 0.00 0.00 0.00 68 1007.2
20260506014034 28 0 0.0 3.2 0.00 0.00 0.00 68 1007.1
20260506013532 28 0 0.0 1.6 0.00 0.00 0.00 67 1007.0
20260506013053 28 0 0.0 0.0 0.00 0.00 0.00 67 1006.9
20260506012533 28 0 0.0 0.0 0.00 0.00 0.00 67 1006.9
20260506012033 28 0 0.0 0.0 0.00 0.00 0.00 67 1006.8
20260506011601 28 0 0.0 0.0 0.00 0.00 0.00 67 1006.8
20260506011033 28 0 0.0 0.0 0.00 0.00 0.00 67 1006.8
20260506010532 28 0 0.0 0.0 0.00 0.00 0.00 66 1006.6
20260506010043 28 0 0.0 0.0 0.00 0.00 0.00 66 1006.5
20260506005533 28 0 0.0 1.6 0.00 0.00 0.00 66 1006.5
20260506005032 28 0 0.0 1.6 0.00 0.00 0.00 65 1006.5
20260506004546 28 0 0.0 0.0 0.00 0.00 0.00 65 1006.5
20260506004033 28 0 0.0 0.0 0.00 0.00 0.00 65 1006.4
20260506003535 28 0 0.0 0.0 0.00 0.00 0.00 65 1006.4
20260506003047 28 0 0.0 0.0 0.00 0.00 0.00 65 1006.4
20260506002531 29 0 0.0 0.0 0.00 0.00 0.00 65 1006.4
20260506002032 29 0 0.0 0.0 0.00 0.00 0.00 64 1006.4
20260506001546 29 0 0.0 1.6 0.00 0.00 0.00 64 1006.4
20260506001034 29 0 0.0 1.6 0.00 0.00 0.00 64 1006.4
20260506000531 30 0 0.0 1.6 0.00 0.00 0.00 63 1006.4
20260506000046 29 0 0.0 0.0 0.00 0.00 0.00 64 1006.2
20260505235534 29 0 0.0 3.2 0.00 0.00 0.00 64 1006.2
20260505235047 29 0 0.0 3.2 0.00 0.00 0.00 64 1006.3
20260505234542 30 0 0.0 1.6 0.00 0.00 0.00 64 1006.2
20260505234034 30 0 0.0 1.6 0.00 0.00 0.00 63 1006.2
20260505233534 30 0 0.0 3.2 0.00 0.00 0.00 63 1006.2
20260505233039 30 0 0.0 3.2 0.00 0.00 0.00 62 1006.2
20260505232532 30 0 0.0 0.0 0.00 0.00 0.00 62 1006.2